Wind_Speed
17 17 16 16 15 16 16 15 15 15 14 13 12 12 11 11 10 10 9 9 8 8 7 7 6 6 6 6 6 5 5 5 4 4 4 4 4 4 4 4 4 4 4
18 18 18 17 17 17 18 17 17 16 15 15 14 13 12 12 12 11 11 10 10 9 9 8 7 7 7 6 6 6 6 6 5 5 5 5 5 5 5 5 5 5 5
21 20 20 19 19 19 19 19 19 18 17 16 15 15 13 13 12 12 12 12 11 11 10 10 9 8 8 7 7 7 7 6 6 6 6 6 6 6 7 7 7 7 7
23 22 22 22 21 21 21 21 21 20 19 18 17 16 15 14 13 13 12 12 12 12 12 11 11 10 9 9 8 8 7 7 7 7 7 7 7 7 7 7 7 7 7
24 24 24 23 23 23 22 22 22 21 20 19 18 17 17 16 15 14 13 13 13 13 12 12 12 11 10 10 10 9 9 9 9 9 9 9 8 8 8 8 8 8 8
26 26 25 25 25 24 24 23 23 22 21 21 20 18 18 17 16 15 15 14 14 14 13 13 13 12 11 11 11 11 11 11 11 10 10 10 9 8 8 9 9 9 9
27 27 27 27 26 25 25 24 24 23 22 22 21 20 19 18 17 16 16 15 14 14 14 14 14 13 13 12 12 12 12 12 12 11 11 10 10 10 10 10 10 10 10
28 28 28 27 27 26 26 25 25 24 23 22 22 21 20 19 18 18 17 16 16 15 15 15 15 15 14 14 14 13 13 12 12 12 12 12 12 11 11 11 11 11 11
29 29 28 28 28 28 27 26 25 25 24 24 22 21 21 20 20 19 18 17 16 16 16 15 16 15 15 15 15 14 14 13 13 13 13 13 13 13 13 13 13 12 12
29 29 29 29 29 29 28 27 26 26 25 25 24 22 22 21 20 19 18 18 17 16 16 16 16 16 16 16 16 16 16 15 14 15 14 14 14 14 14 14 14 14 14
30 29 29 28 29 29 29 28 27 27 27 26 25 24 23 22 21 20 19 19 18 17 17 17 17 17 17 17 17 17 17 16 17 17 16 16 15 15 15 16 16 16 16
30 29 29 29 29 29 28 28 28 28 28 27 27 25 24 23 22 21 20 20 19 18 17 18 18 18 18 18 19 19 18 18 18 18 18 18 17 17 17 17 17 17 17
30 30 30 30 29 28 29 29 29 29 29 28 28 26 26 25 23 22 21 20 20 19 19 19 19 19 19 19 20 20 20 20 20 19 20 20 19 19 18 18 18 18 19
30 29 30 30 29 29 29 30 30 29 29 29 29 27 26 26 25 24 22 21 20 20 20 20 20 20 20 21 21 22 21 21 22 21 21 21 21 21 20 20 20 20 19
29 28 29 29 29 30 30 30 30 30 29 30 29 28 27 27 26 24 23 22 22 21 21 22 22 22 21 21 22 23 23 23 23 22 22 22 22 22 22 21 21 22 22
28 28 28 28 29 30 31 31 31 30 29 30 31 29 28 27 27 25 24 23 23 22 22 22 22 22 22 22 22 23 24 24 24 24 23 23 23 23 23 23 23 23 23
28 27 28 28 29 30 32 32 32 30 30 30 31 30 29 29 29 28 27 25 24 23 23 23 23 22 22 23 23 24 24 25 25 25 24 24 24 24 25 25 24 24 24
28 28 28 29 29 30 32 33 32 30 30 31 31 30 29 29 29 29 28 26 25 25 25 24 24 24 24 24 24 24 25 26 27 27 26 26 25 24 25 25 26 26 26
28 29 28 28 29 30 31 32 31 31 30 30 31 31 30 30 30 30 30 28 26 25 25 25 25 25 25 26 26 26 27 27 28 28 28 28 28 26 26 27 27 28 28
27 29 28 28 29 31 32 31 30 31 31 30 30 31 31 31 31 31 31 30 28 27 26 26 27 27 27 28 28 28 28 28 28 29 29 30 30 29 28 29 29 29 30
28 28 27 28 29 31 32 31 29 29 29 30 31 31 31 31 31 31 30 31 30 29 28 28 29 29 29 29 29 29 29 29 29 29 30 32 32 31 30 30 31 31 31
27 26 26 27 29 30 31 31 30 30 29 29 29 31 31 32 32 32 31 31 31 31 30 30 30 30 30 29 30 30 30 30 31 31 32 33 34 34 33 32 32 33 33
26 26 27 27 28 30 31 31 30 30 29 29 30 30 31 31 32 32 32 33 32 32 31 31 31 31 31 31 31 32 32 32 32 33 34 34 35 36 35 34 34 34 35
26 26 28 28 29 30 31 31 31 31 31 31 31 32 33 33 33 34 34 34 33 33 33 33 33 33 33 33 33 33 33 34 34 35 35 36 37 37 37 35 34 35 36
27 27 28 29 30 31 32 32 31 31 33 33 32 32 33 34 35 35 35 35 35 34 34 34 34 35 35 35 35 35 36 37 37 37 37 37 38 38 38 38 37 36 37
29 28 27 29 31 31 32 33 31 32 33 34 33 34 35 35 35 35 36 36 36 36 36 36 36 37 37 37 38 38 38 39 39 40 40 39 39 40 40 41 40 39 40
Wind_Direction
249 248 247 246 245 243 242 241 238 237 236 236 234 231 229 228 226 224 222 221 220 221 220 219 219 219 221 223 228 232 236 239 244 250 252 258 269 279 288 296 301 307 313
250 248 247 246 247 246 243 242 240 240 239 239 237 235 230 228 227 226 227 227 224 224 224 222 223 223 224 228 233 238 243 246 249 254 259 265 270 274 281 288 291 293 299
249 248 248 247 246 246 244 242 241 241 240 240 238 237 233 230 229 229 230 231 229 228 228 228 230 231 231 233 236 241 245 250 253 259 266 266 268 271 274 280 286 289 293
251 249 248 248 247 246 244 242 241 241 241 240 241 239 236 233 232 232 231 232 232 232 231 232 233 236 236 237 239 243 248 253 257 261 268 270 268 269 272 278 282 287 290
250 249 248 247 246 245 244 243 242 241 241 240 240 240 237 235 236 236 235 235 236 235 234 235 235 237 238 239 241 245 249 255 259 262 267 269 269 267 271 277 282 286 289
249 248 247 246 245 245 244 244 243 242 241 240 239 239 237 237 237 236 238 239 239 237 236 237 238 239 240 242 245 247 251 255 259 262 265 266 267 268 270 275 280 283 285
248 247 247 246 245 245 244 244 243 241 240 240 238 239 237 236 237 236 238 240 240 237 237 238 239 242 244 247 247 250 253 257 257 259 261 263 265 268 271 275 279 281 282
248 247 247 246 245 243 242 242 241 240 238 239 239 238 235 235 237 238 239 240 241 239 238 240 240 244 246 249 250 251 255 257 257 256 259 261 264 267 270 273 278 280 281
247 248 247 246 244 242 241 241 239 238 237 237 237 236 235 237 238 237 238 240 240 240 239 239 240 244 247 250 251 251 253 256 255 256 260 262 265 267 269 272 276 278 280
248 248 247 245 243 242 240 238 237 236 235 234 235 237 235 237 236 237 238 241 239 239 238 240 243 245 248 250 251 252 253 254 256 257 259 262 265 268 269 271 274 278 279
246 246 244 243 242 241 239 236 235 235 234 233 233 236 235 237 238 237 239 241 241 240 240 243 246 248 250 251 252 254 253 254 257 257 258 261 265 268 271 272 275 277 279
246 244 241 240 240 238 237 235 233 232 233 233 233 235 237 237 239 238 238 241 244 244 243 245 248 250 251 253 254 255 255 255 258 259 259 261 264 267 271 273 275 276 278
245 243 239 238 238 236 234 233 231 231 233 233 234 235 237 237 238 238 238 242 246 247 246 247 250 253 254 256 257 257 257 258 258 261 261 262 264 267 269 272 274 275 276
243 241 238 236 235 234 232 232 231 231 233 233 234 236 238 238 237 237 239 242 245 248 249 248 251 255 258 259 260 259 259 260 260 262 264 265 266 266 268 270 272 273 274
240 238 236 234 233 232 229 229 229 231 233 232 233 237 240 239 238 239 240 242 245 249 252 252 254 257 261 262 261 261 260 260 261 261 263 266 267 267 268 269 270 272 276
238 237 235 233 232 231 229 228 229 231 233 233 233 236 238 236 237 238 243 245 246 250 252 254 256 258 261 262 262 262 263 262 262 262 262 264 267 268 268 270 270 272 276
237 235 233 231 232 231 229 228 229 231 233 234 234 236 237 237 238 240 244 247 248 251 253 256 256 259 263 263 264 264 264 265 263 263 262 261 264 266 267 268 271 272 275
235 233 233 232 233 232 230 230 229 232 233 234 235 236 237 238 238 241 244 247 249 252 255 256 257 260 264 266 266 266 267 268 266 264 262 261 263 266 267 268 270 273 274
234 234 233 233 235 234 231 230 230 233 235 235 233 235 237 239 241 243 245 247 250 253 257 259 259 261 264 267 268 267 268 269 268 265 263 263 264 267 269 269 271 273 274
234 234 233 234 235 235 231 231 233 234 236 235 233 234 239 241 242 243 244 247 251 255 258 261 261 262 265 267 268 268 268 270 270 268 266 266 267 269 270 271 272 274 275
236 236 235 235 235 235 233 233 235 236 236 236 235 236 240 242 242 244 246 247 251 254 258 262 265 265 267 268 268 268 268 269 270 270 269 268 268 269 272 273 273 274 275
238 237 235 235 235 234 234 235 239 239 238 238 238 240 242 244 245 247 249 251 252 255 259 264 267 269 269 269 268 267 267 268 270 272 272 270 270 271 272 274 274 274 275
240 239 236 236 236 234 234 238 240 241 240 239 239 240 242 245 246 249 252 253 254 256 259 263 266 269 271 270 269 268 267 267 269 272 273 272 271 271 272 275 275 275 276
237 236 236 237 238 237 237 239 242 242 241 240 241 243 245 247 250 251 253 253 254 257 259 262 266 269 271 271 271 271 271 270 271 273 274 273 272 271 271 274 275 275 276
238 236 238 239 239 237 238 240 245 246 243 242 243 245 248 251 252 254 255 253 255 258 261 263 267 269 271 271 271 272 273 273 273 275 275 275 274 273 272 273 275 276 276
238 237 239 240 240 239 240 242 247 247 245 244 246 248 250 251 253 254 255 255 257 259 262 265 267 270 272 272 272 273 274 275 275 275 275 276 275 274 273 274 275 277 276
Height
5843 5843 5844 5845 5846 5847 5849 5850 5851 5852 5853 5854 5855 5856 5857 5858 5859 5860 5861 5862 5862 5863 5864 5865 5865 5866 5866 5867 5868 5868 5869 5870 5870 5871 5871 5871 5872 5872 5872 5872 5873 5873 5873
5839 5840 5841 5842 5843 5845 5846 5847 5848 5849 5851 5852 5853 5854 5855 5856 5857 5858 5859 5860 5861 5862 5863 5863 5864 5865 5865 5866 5867 5867 5868 5869 5869 5870 5870 5871 5871 5871 5871 5872 5872 5872 5872
5835 5836 5837 5839 5840 5841 5842 5844 5845 5847 5848 5849 5850 5852 5853 5854 5855 5856 5857 5858 5859 5860 5861 5862 5863 5863 5864 5865 5865 5866 5867 5868 5868 5869 5869 5869 5870 5870 5870 5870 5871 5871 5871
5830 5832 5833 5834 5836 5837 5839 5840 5842 5843 5845 5846 5848 5849 5851 5852 5853 5854 5855 5856 5857 5858 5859 5860 5861 5862 5863 5863 5864 5865 5865 5866 5867 5867 5868 5868 5868 5869 5869 5869 5869 5869 5869
5825 5827 5828 5830 5831 5833 5834 5836 5838 5840 5841 5843 5845 5846 5848 5849 5850 5852 5853 5854 5855 5856 5857 5858 5859 5860 5861 5862 5862 5863 5864 5864 5865 5866 5866 5867 5867 5867 5867 5867 5868 5868 5868
5820 5821 5823 5824 5826 5828 5830 5832 5834 5836 5838 5839 5841 5843 5844 5846 5848 5849 5850 5851 5852 5854 5855 5856 5857 5858 5859 5859 5860 5861 5862 5862 5863 5864 5864 5865 5865 5865 5866 5866 5866 5866 5866
5814 5815 5817 5819 5821 5823 5825 5827 5829 5831 5833 5835 5837 5839 5841 5843 5844 5846 5847 5848 5850 5851 5852 5853 5854 5855 5856 5857 5858 5859 5859 5860 5861 5862 5862 5863 5863 5863 5864 5864 5864 5864 5864
5808 5809 5811 5813 5815 5817 5819 5822 5824 5826 5829 5831 5833 5835 5837 5839 5841 5842 5844 5845 5846 5848 5849 5850 5851 5853 5853 5854 5855 5856 5857 5858 5858 5859 5860 5860 5861 5861 5862 5862 5862 5862 5862
5801 5803 5805 5807 5809 5811 5813 5816 5819 5821 5824 5827 5829 5831 5833 5835 5837 5839 5840 5842 5843 5845 5846 5847 5848 5849 5851 5852 5852 5853 5854 5855 5856 5857 5857 5858 5858 5859 5859 5859 5860 5860 5860
5794 5796 5798 5800 5802 5805 5808 5810 5813 5816 5820 5822 5825 5827 5829 5831 5833 5835 5837 5839 5840 5841 5843 5844 5845 5846 5847 5848 5849 5850 5851 5852 5853 5854 5855 5855 5855 5856 5856 5856 5857 5857 5857
5787 5789 5791 5793 5796 5799 5802 5805 5808 5811 5815 5818 5821 5823 5825 5827 5830 5831 5834 5835 5837 5838 5839 5841 5842 5843 5844 5845 5846 5847 5848 5849 5850 5851 5851 5852 5852 5853 5853 5853 5853 5854 5854
5779 5781 5784 5786 5789 5792 5796 5799 5802 5806 5809 5813 5816 5818 5821 5823 5826 5827 5829 5831 5833 5834 5836 5837 5838 5839 5840 5841 5842 5843 5844 5845 5846 5847 5847 5848 5849 5849 5849 5850 5850 5850 5850
5772 5774 5776 5780 5783 5786 5789 5793 5797 5800 5804 5807 5810 5813 5816 5819 5821 5823 5825 5827 5829 5831 5832 5833 5834 5835 5836 5837 5838 5839 5840 5841 5842 5843 5843 5844 5845 5845 5845 5846 5846 5846 5846
5764 5767 5770 5773 5776 5779 5783 5787 5791 5795 5798 5802 5805 5808 5811 5814 5817 5819 5821 5823 5825 5827 5828 5829 5830 5831 5832 5833 5834 5835 5836 5837 5837 5838 5839 5840 5840 5841 5841 5841 5841 5842 5841
5757 5760 5763 5767 5770 5774 5777 5781 5785 5789 5793 5796 5800 5803 5806 5809 5811 5814 5816 5819 5820 5822 5823 5825 5826 5827 5827 5828 5829 5830 5831 5832 5833 5833 5834 5835 5836 5836 5836 5836 5837 5837 5837
5751 5754 5757 5761 5764 5768 5771 5774 5779 5784 5787 5791 5794 5797 5800 5803 5806 5809 5812 5814 5816 5817 5819 5820 5821 5821 5823 5823 5824 5825 5825 5826 5827 5828 5829 5830 5830 5831 5831 5831 5832 5832 5832
5746 5749 5752 5755 5758 5762 5765 5769 5773 5777 5781 5785 5788 5792 5795 5798 5801 5804 5806 5809 5810 5812 5814 5815 5816 5817 5817 5818 5819 5819 5820 5821 5821 5823 5823 5824 5825 5825 5825 5826 5826 5826 5827
5741 5743 5746 5749 5753 5756 5760 5763 5767 5771 5775 5779 5782 5786 5789 5792 5795 5799 5801 5803 5805 5807 5808 5809 5810 5811 5812 5813 5813 5814 5814 5815 5816 5816 5817 5818 5819 5819 5819 5820 5820 5820 5821
5736 5738 5741 5744 5747 5751 5754 5757 5761 5766 5769 5773 5776 5780 5784 5787 5790 5793 5796 5798 5799 5801 5803 5804 5805 5806 5807 5807 5807 5808 5809 5809 5810 5810 5811 5812 5812 5813 5814 5814 5814 5814 5814
5731 5733 5736 5739 5742 5745 5748 5752 5756 5760 5764 5767 5770 5774 5778 5781 5783 5786 5789 5792 5794 5795 5797 5798 5799 5800 5800 5801 5801 5802 5802 5803 5803 5804 5804 5805 5806 5807 5807 5808 5808 5808 5808
5726 5728 5731 5734 5737 5740 5743 5747 5750 5754 5758 5761 5764 5768 5771 5774 5777 5780 5783 5786 5788 5789 5791 5792 5793 5793 5793 5794 5795 5795 5796 5796 5797 5797 5797 5798 5799 5800 5800 5801 5801 5801 5801
5721 5723 5726 5729 5732 5735 5739 5742 5745 5748 5752 5756 5759 5762 5765 5768 5771 5773 5776 5778 5781 5783 5784 5786 5786 5787 5787 5787 5788 5788 5789 5790 5790 5790 5791 5791 5792 5792 5792 5793 5793 5793 5793
5716 5719 5721 5724 5727 5730 5734 5737 5740 5743 5746 5750 5753 5756 5759 5762 5764 5767 5770 5772 5774 5776 5777 5778 5779 5780 5780 5780 5780 5781 5782 5783 5783 5784 5783 5784 5784 5784 5784 5784 5785 5785 5784
5711 5713 5716 5719 5722 5725 5728 5731 5734 5737 5740 5743 5746 5749 5752 5755 5758 5760 5762 5764 5766 5768 5769 5771 5772 5772 5772 5772 5772 5773 5774 5774 5775 5776 5776 5775 5776 5776 5776 5776 5776 5776 5775
5706 5708 5711 5714 5716 5719 5723 5726 5728 5731 5734 5737 5740 5742 5745 5748 5751 5753 5754 5757 5758 5760 5761 5763 5763 5764 5764 5764 5765 5765 5765 5766 5766 5766 5767 5767 5767 5767 5767 5767 5767 5766 5766
5699 5702 5705 5708 5711 5713 5716 5719 5722 5724 5727 5730 5733 5736 5739 5741 5743 5745 5747 5748 5750 5752 5753 5754 5755 5755 5755 5755 5756 5756 5756 5757 5757 5757 5757 5757 5757 5757 5757 5757 5757 5756 5756